Weather History for KNJK - August, 2013

Change the Weather History Date:

Thursday, August 29, 2013

  Actual Average Record
Temperature  
Mean Temperature 86 °F -  
Max Temperature 91 °F 102 °F 116 °F (2005)
Min Temperature 81 °F 78 °F 69 °F (1997)
Cooling Degree Days 21    
Growing Degree Days 36 (Base 50)    
Moisture  
Dew Point 75 °F    
Average Humidity 72    
Maximum Humidity 85    
Minimum Humidity 57    
Precipitation  
Precipitation 0.00 in - - ()
Sea Level Pressure  
Sea Level Pressure 29.95 in    
Wind  
Wind Speed 8 mph (SSE)    
Max Wind Speed 25 mph    
Max Gust Speed -    
Visibility 10 miles    
Events Thunderstorm    
Averages and records for this station are not official NWS values.
T = Trace of Precipitation, MM = Missing Value Source: NWS Daily Summary

Daily Weather History Graph

Daily Weather History Graph

Search for Another Location

Airport or City:

Trip Planner

Search our weather history database for the weather conditions in past years. The results will help you decide how hot, cold, wet, or windy it might be!

Date:

Astronomy

Aug. 29, 2013 Rise Set
Actual Time 6:15 AM PDT 7:10 PM PDT
Civil Twilight 5:50 AM PDT 7:36 PM PDT
Nautical Twilight 5:20 AM PDT 8:05 PM PDT
Astronomical Twilight 4:49 AM PDT 8:36 PM PDT
Moon 12:19 AM PDT (8/29) 2:33 PM PDT (8/29)
Length of Visible Light 13h 45m
Length of Day
12h 55m
Last Quarter, 37% of the Moon is Illuminated
Aug 29
Last Quarter
Sep 5
New
Sep 12
First Quarter
Sep 19
Full
Sep 26
Last Quarter

Hourly Weather History & Observations

Time (PDT) Temp. Heat Index Dew Point Humidity Pressure Visibility Wind Dir Wind Speed Gust Speed Precip Events Conditions
12:56 AM 87.1 °F 95.4 °F 73.9 °F 65% 29.86 in 10.0 mi North - - N/A   Clear
1:56 AM 84.0 °F 89.6 °F 72.0 °F 67% 29.88 in 10.0 mi North - - N/A   Clear
2:56 AM 84.0 °F 90.2 °F 73.0 °F 69% 29.89 in 10.0 mi North - - N/A   Partly Cloudy
3:56 AM 82.0 °F 89.4 °F 75.9 °F 82% 29.87 in 10.0 mi North - - 0.00 in   Partly Cloudy
4:56 AM 81.0 °F 87.3 °F 75.9 °F 85% 29.90 in 10.0 mi North - - N/A   Clear
5:56 AM 81.0 °F 86.7 °F 75.0 °F 82% 29.91 in 10.0 mi NNE 5.8 mph - N/A   Mostly Cloudy
6:56 AM 81.0 °F 87.3 °F 75.9 °F 85% 29.94 in 10.0 mi NNE 3.5 mph - N/A   Mostly Cloudy
7:56 AM 84.0 °F 92.6 °F 75.9 °F 76% 29.96 in 10.0 mi ESE 9.2 mph - N/A   Mostly Cloudy
8:56 AM 84.9 °F 94.1 °F 75.9 °F 74% 29.98 in 10.0 mi East 8.1 mph - N/A   Mostly Cloudy
9:56 AM 87.1 °F 96.3 °F 75.0 °F 67% 29.99 in 10.0 mi East 6.9 mph - N/A   Mostly Cloudy
10:56 AM 89.1 °F 99.1 °F 75.0 °F 63% 29.99 in 10.0 mi Variable 5.8 mph - N/A   Mostly Cloudy
11:56 AM 91.0 °F 100.4 °F 73.9 °F 57% 29.98 in 10.0 mi Variable 3.5 mph - N/A   Mostly Cloudy
12:36 PM 86.0 °F 96.0 °F 75.9 °F 72% 29.94 in 10.0 mi South 25.3 mph - N/A Thunderstorm Thunderstorm
12:56 PM 84.9 °F 93.3 °F 75.0 °F 72% 30.00 in 10.0 mi SSW 20.7 mph - N/A Thunderstorm Thunderstorm
1:27 PM 84.0 °F 91.2 °F 73.9 °F 72% 29.94 in 10.0 mi WSW 12.7 mph - N/A Thunderstorm Mostly Cloudy
1:56 PM 84.9 °F 93.3 °F 75.0 °F 72% 29.97 in 10.0 mi SW 10.4 mph - N/A   Mostly Cloudy
2:56 PM 86.0 °F 93.8 °F 73.9 °F 67% 29.95 in 10.0 mi SW 9.2 mph - N/A   Mostly Cloudy
3:56 PM 87.1 °F 96.3 °F 75.0 °F 67% 29.94 in 10.0 mi WSW 10.4 mph - N/A   Mostly Cloudy
4:56 PM 87.1 °F 95.4 °F 73.9 °F 65% 29.95 in 10.0 mi WSW 9.2 mph - N/A   Mostly Cloudy
5:56 PM 87.1 °F 95.4 °F 73.9 °F 65% 29.94 in 10.0 mi SW 10.4 mph - N/A   Mostly Cloudy
6:56 PM 87.1 °F 95.4 °F 73.9 °F 65% 29.95 in 10.0 mi SW 3.5 mph - N/A   Mostly Cloudy
7:56 PM 84.9 °F 93.3 °F 75.0 °F 72% 29.95 in 10.0 mi Calm Calm - N/A   Mostly Cloudy
8:56 PM 84.9 °F 92.1 °F 73.9 °F 69% 29.97 in 10.0 mi ENE 5.8 mph - N/A   Mostly Cloudy
9:56 PM 82.9 °F 91.8 °F 77.0 °F 82% 29.99 in 10.0 mi NE 6.9 mph - N/A   Mostly Cloudy
10:56 PM 82.0 °F 89.4 °F 75.9 °F 82% 30.00 in 10.0 mi NE 5.8 mph - N/A   Mostly Cloudy
11:56 PM 82.9 °F 91.8 °F 77.0 °F 82% 30.00 in 10.0 mi ENE 5.8 mph - N/A   Clear